Temperature
18 18 18 18 18 18 18 18 18 17 17 17 17 18 18 17 17 17 17 17 17 17 17 17 17 17 17 17 17 17 17 17 17 17 17 16 16 16 16 16 16 16 16
18 18 18 18 18 18 18 18 17 18 17 17 17 17 17 17 17 17 17 17 17 17 17 17 17 17 17 17 17 17 17 17 17 17 17 17 16 16 16 16 16 16 16
18 18 18 18 18 18 18 18 17 17 18 18 17 17 17 17 17 17 17 17 17 17 17 17 17 17 17 17 17 17 17 17 17 17 17 16 16 16 16 16 16 16 16
18 18 18 18 18 18 18 18 17 17 18 18 18 18 18 17 17 17 17 17 17 17 17 17 17 17 17 17 17 17 17 17 16 16 16 16 16 16 16 16 16 16 16
18 18 18 18 18 18 18 18 17 17 17 17 18 18 18 18 17 17 17 17 17 17 17 17 17 17 17 17 17 17 17 17 17 16 16 16 16 16 16 16 16 16 16
18 18 18 18 18 18 18 18 17 17 17 17 18 18 18 18 17 17 17 17 17 17 17 17 17 17 17 17 17 17 17 17 16 16 16 16 16 16 16 16 16 16 16
18 18 18 18 18 18 18 18 18 17 17 18 18 18 18 18 18 17 17 17 17 17 17 17 17 17 17 17 17 17 17 16 16 16 16 16 16 16 16 16 16 16 16
18 18 18 18 18 18 18 18 18 17 18 17 18 18 19 18 17 18 17 17 17 17 17 17 17 17 17 16 17 17 17 16 16 16 16 16 16 16 16 16 16 16 16
18 18 18 18 18 18 18 18 17 17 17 17 18 18 19 19 18 18 17 17 17 17 17 17 17 17 16 16 16 17 17 16 16 16 16 16 16 16 16 16 16 16 15
18 18 18 18 18 18 18 17 17 17 17 17 17 17 18 18 18 19 18 18 17 17 17 17 17 17 16 16 17 17 17 16 16 16 16 16 16 16 16 16 16 15 15
18 18 18 18 18 18 18 17 17 17 17 17 17 17 17 17 18 18 18 18 17 17 17 17 17 17 16 16 16 16 17 16 16 16 16 16 16 16 16 16 15 15 15
18 18 18 18 18 18 17 17 17 17 17 17 17 17 17 18 18 18 18 18 18 17 17 17 17 17 16 16 16 16 17 16 16 16 16 16 16 15 15 15 15 15 15
18 18 18 18 17 17 17 17 17 17 17 17 17 17 17 17 17 17 18 18 18 17 17 17 17 16 16 16 16 16 16 16 16 16 16 16 16 15 15 15 15 15 15
18 18 18 18 18 17 17 17 17 17 17 17 17 17 17 17 17 17 17 18 18 18 17 17 17 16 16 16 16 16 16 16 16 16 16 16 16 16 15 15 15 15 15
18 18 18 17 17 17 17 17 17 17 17 17 17 17 16 17 17 17 17 17 18 18 18 17 17 17 16 16 16 16 16 16 16 16 16 16 16 16 16 15 15 15 15
18 18 17 17 17 17 17 17 17 17 17 17 17 17 17 17 17 16 16 17 17 17 18 18 17 17 16 16 16 16 16 16 16 16 16 16 16 16 16 15 15 15 15
18 18 17 17 17 17 17 17 17 17 17 16 16 16 16 17 16 16 16 16 17 17 17 17 17 16 16 16 16 16 16 16 16 16 16 16 16 16 16 15 15 15 15
17 17 17 17 17 17 17 17 17 16 16 16 16 16 16 16 16 16 16 16 16 16 16 16 16 16 16 16 16 16 16 16 16 16 16 16 16 16 16 15 15 15 15
17 17 17 17 17 17 17 16 16 16 16 16 16 16 16 16 16 16 16 16 16 16 16 16 16 16 16 16 16 16 15 16 15 16 16 15 15 15 15 15 15 15 15
17 17 17 16 16 16 16 16 16 16 16 16 16 16 16 16 16 16 16 16 16 16 16 16 16 16 16 16 16 16 16 15 15 16 15 15 15 15 15 15 15 15 15
16 16 16 16 16 16 16 16 16 16 16 15 16 16 16 16 16 16 16 16 16 16 16 16 16 16 16 16 15 15 15 15 15 15 15 15 15 15 15 15 15 15 15
16 16 16 16 16 16 16 16 16 15 15 15 15 15 15 15 16 16 16 16 16 16 15 16 16 16 16 15 15 15 15 15 15 15 15 15 15 15 15 15 15 15 14
16 16 16 16 16 16 16 16 16 15 15 15 15 15 15 15 15 15 15 15 16 16 16 15 15 15 15 15 15 15 15 15 15 15 15 15 15 15 15 15 15 14 14
16 16 16 15 15 15 16 16 16 15 15 15 15 15 15 15 15 15 15 15 15 15 15 15 15 15 15 15 15 15 15 14 15 15 14 14 15 15 15 14 14 14 14
15 15 15 15 15 15 15 15 15 15 15 15 15 15 15 15 15 15 15 15 15 15 15 15 15 15 15 15 15 14 14 14 15 15 14 14 14 14 14 14 14 14 14
15 15 15 15 15 15 15 15 15 15 15 15 15 15 15 15 15 15 15 14 14 15 14 14 14 15 15 15 15 14 14 14 15 15 15 14 14 14 14 14 14 14 14
Wind_Speed
1 1 1 1 0 1 1 1 1 2 1 2 3 3 2 2 2 3 5 8 7 6 7 7 7 9 10 10 11 11 12 12 11 11 11 11 11 11 10 9 9 9 8
1 0 1 1 0 0 1 0 1 1 1 2 2 2 2 2 2 2 3 6 8 7 7 7 7 7 9 9 10 12 12 12 12 12 12 11 11 11 10 10 9 9 9
1 1 0 0 0 0 1 1 1 1 2 2 2 2 2 2 2 3 3 3 5 8 7 6 6 6 8 9 10 12 12 12 11 11 11 11 11 11 11 10 10 9 9
1 1 1 1 1 1 1 1 1 1 1 1 2 2 2 2 3 3 3 3 3 4 7 7 5 5 7 8 10 12 13 12 12 11 11 11 11 11 11 10 10 9 9
2 2 1 1 1 1 0 0 1 0 1 1 2 2 2 2 2 3 3 3 3 3 4 7 7 6 6 6 7 10 11 11 11 12 12 12 11 11 11 11 10 9 9
1 2 1 1 2 1 0 0 0 0 1 1 1 2 2 2 2 2 2 3 3 3 3 3 5 6 6 6 5 6 8 8 8 10 11 11 11 11 12 12 11 10 10
1 2 1 1 2 1 1 1 1 1 1 1 1 2 2 2 1 2 2 2 2 3 3 3 3 3 6 8 7 7 7 7 7 7 9 10 10 10 11 11 11 10 10
2 2 1 2 1 1 1 1 1 1 1 1 1 1 2 3 2 2 2 2 2 2 2 3 3 3 4 5 7 9 8 7 7 7 8 9 10 10 10 11 11 11 10
2 2 2 2 2 2 1 2 2 2 1 1 0 1 1 1 2 3 3 2 2 2 2 2 3 4 4 4 6 9 9 8 7 8 7 7 9 10 10 10 11 10 10
2 2 2 2 3 2 1 2 2 2 2 2 1 1 1 1 2 2 3 3 3 2 2 2 2 4 4 4 5 5 8 8 8 8 8 8 8 9 10 10 10 10 10
2 2 2 2 2 2 2 2 1 2 2 2 1 1 1 1 2 2 1 2 2 2 2 2 2 2 4 4 4 6 8 7 8 8 8 8 9 8 9 10 11 11 11
1 2 2 2 3 2 2 3 3 3 2 2 2 2 2 2 2 2 2 2 2 2 2 2 3 3 4 4 4 8 8 7 7 8 9 9 9 9 9 9 10 12 11
2 2 2 2 2 2 3 3 4 3 3 3 3 3 3 3 2 2 2 2 2 2 3 3 3 3 4 4 5 8 8 8 8 8 9 9 10 10 10 10 10 10 10
2 2 2 2 3 3 4 3 3 3 3 4 4 4 3 3 3 3 3 2 3 3 4 4 3 4 4 5 5 8 7 10 10 9 9 9 10 11 10 10 10 10 9
2 2 2 2 2 3 3 3 2 3 3 4 4 5 4 3 3 3 3 4 4 4 4 4 4 4 5 5 6 6 6 9 11 10 9 9 9 10 10 10 10 9 8
3 3 2 2 2 3 3 3 3 3 3 3 3 4 4 4 3 3 4 4 4 4 3 2 3 4 4 4 7 7 7 10 11 11 11 11 10 10 10 10 10 10 10
3 2 3 3 3 3 3 3 4 4 4 4 4 4 5 4 3 3 3 3 4 4 4 3 3 2 4 5 4 6 7 8 9 14 13 12 12 11 11 11 11 11 11
3 3 3 3 3 3 3 4 4 4 4 5 5 4 5 4 4 4 3 4 3 4 5 5 4 3 5 5 5 6 6 7 7 11 14 13 13 13 12 12 12 12 12
4 3 3 3 3 3 4 4 4 4 5 5 4 4 4 4 5 4 5 4 4 4 4 5 5 3 4 4 5 6 6 5 7 8 12 13 14 14 14 14 13 13 12
4 4 4 4 4 4 4 4 4 4 5 5 4 4 5 5 5 5 5 5 5 5 5 5 5 4 4 4 4 5 5 6 6 6 6 8 11 15 15 15 15 14 14
5 4 5 4 5 5 4 3 4 5 5 5 5 5 5 5 5 5 5 5 5 5 5 5 6 5 4 4 5 5 5 5 5 5 5 6 7 8 11 14 16 15 15
5 5 5 5 5 4 1 2 5 6 5 6 6 6 6 6 6 7 7 6 6 7 7 6 6 6 5 5 5 6 5 5 5 4 5 6 6 7 7 8 12 15 16
5 5 6 6 6 5 3 4 6 7 7 6 6 6 6 5 5 6 7 9 9 9 8 8 8 7 6 5 5 7 6 7 7 4 4 7 6 6 6 7 11 15 15
5 6 6 6 6 5 5 6 7 8 7 7 7 7 7 6 6 6 7 7 8 8 8 9 8 8 7 5 6 7 7 8 8 7 5 7 6 6 6 5 11 14 15
6 6 6 6 6 5 5 5 6 6 6 7 7 7 8 8 4 5 8 8 8 8 8 9 9 8 6 6 7 6 7 7 7 7 6 6 6 6 6 6 7 14 15
6 7 6 6 6 6 5 6 7 6 6 7 7 8 8 8 5 6 8 8 8 8 7 7 8 9 10 9 10 9 8 8 8 7 5 5 6 5 5 5 4 6 8
Wind_Direction
58 85 70 69 111 140 140 132 128 112 143 154 157 151 156 167 162 154 138 153 175 187 190 191 195 195 191 191 190 186 187 189 189 187 189 190 191 191 193 195 190 189 188
34 74 118 91 84 152 73 158 129 131 155 149 156 152 172 180 160 177 158 162 177 185 193 196 196 195 192 191 193 191 192 195 192 190 193 195 195 196 194 190 192 192 191
332 301 1 22 28 132 156 209 177 157 178 165 156 157 166 182 169 173 168 171 172 177 180 184 193 202 197 196 195 195 193 192 192 192 196 197 196 196 196 194 196 195 195
294 289 307 328 335 245 174 177 201 158 164 164 157 161 153 158 170 174 170 167 168 162 168 173 186 201 197 198 201 200 196 196 195 198 200 199 199 196 194 197 198 198 199
301 289 312 339 270 259 207 238 116 178 166 178 166 153 163 161 175 173 164 160 159 169 167 165 176 187 189 195 202 201 199 197 197 199 200 199 196 194 194 195 195 196 197
296 287 272 276 270 254 231 30 146 201 221 204 179 131 152 160 177 165 177 163 159 162 165 159 174 174 174 178 182 185 187 190 194 200 195 195 196 194 194 192 191 192 197
291 268 286 256 270 256 284 257 234 192 185 203 195 167 157 158 168 169 181 169 162 162 162 165 180 177 169 169 170 172 178 186 188 188 189 190 192 191 190 190 191 194 198
281 234 238 264 275 246 229 237 218 232 262 218 251 215 188 178 182 166 172 177 174 161 165 170 170 180 182 165 156 171 179 183 187 188 187 190 189 186 189 194 195 197 198
290 282 254 262 264 258 225 232 218 222 238 212 255 277 249 218 175 162 173 172 167 163 180 169 179 177 174 174 166 167 174 182 186 186 186 185 190 193 195 196 198 199 204
308 288 264 259 260 267 245 241 207 231 227 220 198 272 319 327 253 188 174 169 168 176 198 196 169 164 174 175 154 144 160 174 180 187 189 190 190 197 201 202 205 206 209
299 290 269 261 261 260 249 251 237 241 231 230 231 218 211 224 266 267 199 175 173 190 206 202 195 187 174 184 175 157 155 169 177 187 192 195 199 204 208 212 213 214 215
304 300 262 250 252 261 244 227 227 217 235 238 245 237 233 251 244 250 236 199 201 212 214 219 217 204 193 193 174 144 158 174 184 194 198 203 207 211 214 219 223 223 222
320 308 280 254 260 256 252 233 218 229 224 220 228 239 245 262 272 266 252 232 230 227 217 225 221 214 204 195 174 162 176 186 193 200 205 210 213 216 218 221 224 226 223
313 308 281 263 261 258 253 233 224 220 216 219 225 238 244 242 247 247 251 251 244 236 224 225 217 221 217 210 173 188 192 188 196 204 211 215 216 217 218 220 222 222 223
300 300 283 269 260 259 257 245 233 230 222 224 227 221 235 236 240 249 246 247 257 255 244 217 220 213 218 209 176 213 214 189 196 204 211 215 215 216 217 214 212 212 212
313 300 296 286 274 256 235 238 236 231 229 230 238 241 242 242 233 243 245 247 257 263 266 238 223 215 216 224 194 221 222 188 201 206 212 216 217 218 217 212 211 210 210
309 302 293 285 276 263 248 240 248 235 233 234 237 233 236 250 242 239 241 240 245 253 252 258 237 211 217 241 211 227 223 219 213 202 209 214 218 220 219 216 214 213 213
294 293 286 273 264 260 253 248 251 247 241 240 239 240 242 236 235 241 242 240 242 246 245 248 246 227 224 230 225 233 230 225 227 194 200 210 215 218 220 218 216 215 215
290 291 283 276 271 267 257 256 256 255 249 247 245 241 243 240 236 239 240 242 244 244 244 248 246 232 230 224 225 231 233 235 238 200 197 206 213 217 218 218 217 215 215
281 284 280 276 271 264 258 258 258 258 255 255 253 245 242 238 236 239 234 236 244 248 245 250 251 238 233 220 227 236 235 225 237 228 211 213 212 214 216 216 215 215 217
276 276 274 271 269 260 255 263 259 252 252 251 248 245 242 238 244 244 248 237 237 243 245 246 247 245 239 228 236 243 246 242 233 235 229 224 214 218 215 216 216 214 215
278 274 269 267 265 266 311 289 275 263 254 250 250 248 241 231 229 224 242 249 246 243 248 249 247 250 248 243 248 254 255 254 251 227 231 240 229 229 224 219 201 204 212
274 272 271 267 264 259 226 245 261 264 255 250 250 253 254 245 234 243 234 230 238 241 244 251 258 258 255 251 254 256 252 255 259 254 242 252 243 240 236 220 190 197 207
277 274 272 270 267 256 215 228 250 252 255 251 249 250 254 256 251 251 252 245 245 242 236 240 255 259 262 262 252 253 257 252 251 243 234 255 257 255 248 226 188 197 205
278 276 274 273 271 263 223 223 242 252 249 250 251 250 252 253 238 243 250 251 253 253 237 231 245 258 272 263 257 255 251 250 254 249 225 242 256 260 255 241 207 197 203
273 275 274 272 270 269 234 222 234 255 253 253 246 243 235 245 239 220 242 250 255 259 262 248 237 239 243 236 225 238 248 252 259 261 237 233 251 253 256 244 232 207 207
Height
1532 1532 1531 1531 1532 1532 1533 1533 1533 1534 1534 1535 1535 1535 1536 1536 1537 1537 1537 1536 1536 1536 1536 1536 1536 1537 1538 1539 1539 1538 1541 1544 1547 1549 1551 1553 1555 1556 1557 1558 1560 1561 1562
1532 1532 1532 1531 1532 1532 1532 1533 1533 1533 1534 1534 1535 1535 1535 1536 1536 1536 1537 1536 1535 1535 1535 1536 1536 1536 1537 1538 1539 1540 1542 1544 1546 1548 1550 1552 1553 1554 1556 1557 1558 1559 1560
1532 1532 1532 1532 1532 1532 1532 1532 1533 1533 1534 1534 1534 1535 1535 1535 1536 1536 1536 1536 1536 1535 1535 1535 1535 1536 1537 1538 1538 1540 1541 1543 1545 1546 1548 1550 1551 1552 1554 1555 1557 1558 1559
1532 1532 1532 1532 1532 1532 1532 1532 1533 1533 1533 1534 1534 1534 1534 1534 1535 1535 1535 1535 1535 1536 1535 1535 1535 1535 1536 1537 1537 1538 1539 1541 1543 1544 1546 1548 1549 1551 1552 1553 1555 1556 1557
1532 1532 1532 1532 1532 1532 1532 1532 1532 1533 1533 1533 1533 1533 1534 1534 1534 1535 1535 1535 1535 1535 1535 1535 1535 1535 1535 1536 1537 1537 1538 1540 1541 1543 1544 1546 1547 1549 1550 1551 1553 1554 1555
1532 1532 1532 1531 1532 1532 1531 1531 1531 1532 1532 1532 1533 1533 1533 1534 1534 1534 1534 1535 1535 1535 1535 1535 1535 1535 1535 1535 1536 1537 1537 1538 1540 1541 1542 1544 1545 1547 1548 1550 1551 1552 1553
1532 1531 1532 1531 1531 1531 1531 1531 1531 1531 1532 1532 1533 1533 1533 1533 1533 1533 1534 1534 1534 1534 1534 1534 1535 1535 1535 1535 1535 1536 1537 1537 1538 1539 1540 1542 1543 1545 1546 1547 1549 1550 1551
1532 1532 1530 1531 1530 1530 1530 1530 1530 1530 1531 1531 1532 1532 1532 1534 1533 1533 1533 1533 1533 1534 1534 1534 1534 1534 1535 1535 1535 1535 1536 1537 1537 1538 1539 1540 1541 1543 1544 1545 1547 1548 1548
1531 1530 1530 1529 1529 1529 1529 1529 1529 1529 1530 1530 1531 1532 1531 1531 1531 1532 1531 1532 1532 1532 1533 1533 1533 1533 1533 1534 1535 1535 1535 1535 1536 1536 1537 1538 1539 1541 1542 1543 1544 1545 1546
1530 1530 1529 1528 1528 1528 1528 1528 1528 1528 1528 1529 1529 1529 1530 1530 1530 1530 1530 1530 1531 1531 1532 1532 1532 1532 1533 1534 1534 1534 1534 1534 1534 1535 1536 1536 1537 1538 1539 1541 1542 1543 1544
1529 1528 1528 1527 1526 1527 1526 1526 1526 1526 1527 1528 1528 1529 1529 1529 1529 1529 1529 1530 1530 1530 1531 1531 1532 1532 1532 1533 1532 1532 1533 1533 1533 1533 1534 1534 1535 1536 1537 1538 1539 1540 1541
1529 1527 1527 1526 1525 1525 1525 1524 1524 1525 1525 1525 1526 1527 1527 1528 1528 1528 1527 1528 1528 1529 1529 1530 1530 1531 1531 1531 1531 1531 1531 1531 1531 1531 1532 1532 1533 1534 1534 1535 1536 1537 1538
1528 1526 1526 1525 1524 1523 1523 1522 1522 1523 1524 1523 1524 1525 1526 1526 1527 1527 1527 1527 1527 1528 1528 1528 1529 1529 1529 1529 1529 1528 1528 1529 1529 1529 1530 1530 1531 1531 1532 1532 1533 1534 1535
1527 1525 1524 1523 1523 1522 1522 1521 1521 1521 1522 1522 1523 1523 1524 1524 1525 1525 1526 1526 1526 1527 1526 1527 1527 1527 1527 1527 1527 1526 1526 1527 1527 1527 1527 1527 1528 1528 1529 1530 1531 1531 1532
1525 1524 1523 1522 1521 1521 1520 1520 1520 1520 1520 1521 1521 1521 1522 1522 1523 1523 1524 1524 1525 1524 1524 1524 1524 1524 1524 1525 1524 1524 1525 1524 1524 1525 1525 1525 1525 1526 1526 1527 1528 1528 1529
1523 1522 1521 1521 1520 1519 1518 1518 1519 1518 1519 1519 1519 1519 1519 1520 1521 1521 1522 1522 1522 1523 1522 1522 1523 1523 1522 1523 1522 1522 1522 1522 1522 1522 1522 1522 1523 1523 1523 1524 1524 1525 1526
1521 1520 1520 1519 1518 1517 1517 1517 1517 1517 1517 1517 1517 1517 1517 1517 1518 1519 1519 1519 1519 1520 1520 1520 1520 1520 1519 1519 1519 1519 1520 1519 1519 1519 1519 1520 1520 1520 1520 1520 1521 1522 1522
1520 1519 1517 1516 1516 1515 1515 1515 1515 1515 1514 1514 1514 1514 1514 1515 1515 1516 1516 1516 1517 1517 1517 1517 1518 1517 1517 1517 1516 1516 1517 1517 1517 1516 1516 1517 1517 1517 1517 1517 1518 1518 1518
1517 1517 1515 1514 1513 1513 1513 1512 1512 1512 1512 1512 1512 1512 1512 1512 1512 1513 1513 1514 1514 1514 1514 1515 1515 1515 1514 1514 1514 1514 1514 1513 1514 1513 1513 1513 1513 1514 1514 1514 1514 1514 1514
1515 1514 1513 1512 1512 1511 1510 1510 1509 1509 1509 1509 1509 1509 1509 1509 1509 1510 1510 1510 1511 1511 1511 1511 1512 1512 1511 1511 1511 1511 1511 1510 1510 1511 1510 1509 1509 1510 1510 1510 1510 1510 1511
1513 1512 1511 1510 1509 1509 1508 1507 1507 1507 1506 1506 1506 1506 1506 1506 1506 1507 1507 1507 1508 1508 1508 1508 1508 1508 1508 1508 1508 1508 1508 1507 1507 1507 1506 1506 1506 1506 1506 1506 1506 1506 1506
1510 1509 1508 1507 1507 1507 1506 1505 1504 1504 1503 1503 1503 1503 1503 1503 1503 1503 1503 1504 1504 1504 1504 1505 1505 1505 1504 1504 1504 1504 1504 1504 1504 1504 1503 1503 1503 1502 1502 1502 1501 1502 1502
1507 1506 1505 1504 1503 1503 1502 1501 1501 1500 1500 1499 1499 1499 1500 1500 1499 1499 1499 1499 1500 1500 1500 1500 1501 1500 1500 1500 1500 1500 1500 1500 1500 1500 1499 1499 1499 1498 1498 1497 1497 1497 1497
1504 1503 1502 1501 1500 1499 1498 1498 1497 1497 1496 1496 1496 1496 1496 1496 1496 1495 1495 1496 1495 1496 1495 1496 1496 1496 1496 1496 1496 1496 1496 1495 1495 1495 1495 1494 1494 1494 1494 1493 1492 1492 1492
1501 1500 1499 1497 1496 1495 1494 1494 1493 1493 1493 1492 1492 1492 1492 1492 1491 1491 1492 1491 1491 1491 1491 1491 1491 1491 1491 1491 1491 1492 1492 1492 1491 1491 1490 1489 1489 1489 1488 1488 1487 1487 1487
1498 1497 1495 1494 1493 1491 1491 1490 1490 1490 1489 1489 1489 1488 1487 1487 1487 1487 1487 1487 1486 1486 1487 1487 1486 1486 1486 1486 1486 1486 1487 1487 1486 1486 1485 1485 1484 1484 1484 1483 1483 1482 1482